Time,TemperatureF,DewpointF,PressureIn,WindDirection,WindDirectionDegrees,WindSpeedMPH,WindSpeedGustMPH,Humidity,HourlyPrecipIn,Conditions,Clouds,dailyrainin,SoftwareType,DateUTC
2013-02-18 00:00:00,14.4,2.3,29.81,NW,312,2.9,10.0,58,0.00,,CLR,0.01,VWS V14.01,2013-02-18 05:00:00,
2013-02-18 00:05:00,14.4,2.3,29.81,SSW,205,1.4,10.0,58,0.00,,CLR,0.00,VWS V14.01,2013-02-18 05:05:00,
2013-02-18 00:10:00,14.3,2.2,29.81,West,271,11.4,15.7,58,0.00,,CLR,0.00,VWS V14.01,2013-02-18 05:10:00,
2013-02-18 00:15:00,14.4,2.3,29.81,West,266,11.4,25.7,58,0.00,,CLR,0.00,VWS V14.01,2013-02-18 05:15:00,
2013-02-18 00:20:00,14.4,2.0,29.81,NW,323,4.3,28.6,57,0.00,,CLR,0.00,VWS V14.01,2013-02-18 05:20:00,
2013-02-18 00:25:00,14.5,2.4,29.82,NW,305,1.4,24.3,58,0.00,,CLR,0.00,VWS V14.01,2013-02-18 05:25:00,
2013-02-18 00:30:00,14.4,2.3,29.82,NNW,345,10.0,22.9,58,0.00,,CLR,0.00,VWS V14.01,2013-02-18 05:30:00,
2013-02-18 00:35:00,14.4,2.0,29.83,NNW,342,11.4,15.7,57,0.00,,CLR,0.00,VWS V14.01,2013-02-18 05:35:00,
2013-02-18 00:40:00,14.4,2.3,29.83,NNW,340,7.1,17.2,58,0.00,,CLR,0.00,VWS V14.01,2013-02-18 05:40:00,
2013-02-18 00:45:00,14.4,2.7,29.83,NNW,328,4.3,18.6,59,0.00,,CLR,0.00,VWS V14.01,2013-02-18 05:45:00,
2013-02-18 00:50:00,14.3,2.6,29.83,NNW,334,0.0,35.8,59,0.00,,CLR,0.00,VWS V14.01,2013-02-18 05:50:00,
2013-02-18 00:55:00,14.4,2.3,29.83,WNW,286,0.0,12.9,58,0.00,,CLR,0.00,VWS V14.01,2013-02-18 05:55:00,
2013-02-18 01:00:00,14.4,2.7,29.84,West,277,4.3,14.3,59,0.00,,CLR,0.00,VWS V14.01,2013-02-18 06:00:00,
2013-02-18 01:05:00,14.3,2.6,29.84,North,9,5.7,15.7,59,0.00,,CLR,0.00,VWS V14.01,2013-02-18 06:05:00,
2013-02-18 01:10:00,14.4,2.7,29.84,NW,316,4.3,18.6,59,0.00,,CLR,0.00,VWS V14.01,2013-02-18 06:10:00,
2013-02-18 01:15:00,14.4,2.7,29.85,WSW,238,11.4,11.4,59,0.00,,CLR,0.00,VWS V14.01,2013-02-18 06:15:00,
2013-02-18 01:20:00,14.2,2.9,29.85,SW,233,8.6,24.3,60,0.00,,CLR,0.00,VWS V14.01,2013-02-18 06:20:00,
2013-02-18 01:25:00,14.2,2.9,29.84,NNW,335,15.7,18.6,60,0.00,,CLR,0.00,VWS V14.01,2013-02-18 06:25:00,
2013-02-18 01:30:00,14.1,2.8,29.85,NW,318,8.6,10.0,60,0.00,,CLR,0.00,VWS V14.01,2013-02-18 06:30:00,
2013-02-18 01:35:00,14.0,2.7,29.85,North,1,7.1,12.9,60,0.00,,CLR,0.00,VWS V14.01,2013-02-18 06:35:00,
2013-02-18 01:40:00,14.2,2.9,29.85,NW,321,4.3,18.6,60,0.00,,CLR,0.00,VWS V14.01,2013-02-18 06:40:00,
2013-02-18 01:45:00,14.0,2.7,29.86,NNE,16,7.1,7.1,60,0.00,,CLR,0.00,VWS V14.01,2013-02-18 06:45:00,
2013-02-18 01:50:00,14.0,2.7,29.86,WSW,250,0.0,12.9,60,0.00,,CLR,0.00,VWS V14.01,2013-02-18 06:50:00,
2013-02-18 01:55:00,13.9,2.6,29.86,NW,316,5.7,14.3,60,0.00,,CLR,0.00,VWS V14.01,2013-02-18 06:55:00,
2013-02-18 02:00:00,13.9,3.0,29.86,NW,324,5.7,12.9,61,0.00,,CLR,0.00,VWS V14.01,2013-02-18 07:00:00,
2013-02-18 02:05:00,13.9,3.0,29.87,NNW,347,0.0,14.3,61,0.00,,CLR,0.00,VWS V14.01,2013-02-18 07:05:00,
2013-02-18 02:10:00,13.9,2.6,29.87,WNW,292,5.7,14.3,60,0.00,,CLR,0.00,VWS V14.01,2013-02-18 07:10:00,
2013-02-18 02:15:00,13.9,3.0,29.87,SSW,202,1.4,11.4,61,0.00,,CLR,0.00,VWS V14.01,2013-02-18 07:15:00,
2013-02-18 02:20:00,13.7,2.8,29.87,NW,319,0.0,11.4,61,0.00,,CLR,0.00,VWS V14.01,2013-02-18 07:20:00,
2013-02-18 02:25:00,13.7,2.8,29.87,South,184,7.1,10.0,61,0.00,,CLR,0.00,VWS V14.01,2013-02-18 07:25:00,
2013-02-18 02:30:00,13.7,2.8,29.87,WNW,295,8.6,8.6,61,0.00,,CLR,0.00,VWS V14.01,2013-02-18 07:30:00,
2013-02-18 02:35:00,13.7,2.8,29.87,NW,315,18.6,27.2,61,0.00,,CLR,0.00,VWS V14.01,2013-02-18 07:35:00,
2013-02-18 02:40:00,13.7,2.8,29.87,NW,315,11.4,18.6,61,0.00,,CLR,0.00,VWS V14.01,2013-02-18 07:40:00,
2013-02-18 02:45:00,13.7,2.8,29.87,NW,320,17.2,17.2,61,0.00,,CLR,0.00,VWS V14.01,2013-02-18 07:45:00,
2013-02-18 02:50:00,13.5,2.6,29.87,WSW,258,1.4,4.3,61,0.00,,CLR,0.00,VWS V14.01,2013-02-18 07:50:00,
2013-02-18 02:55:00,13.6,3.0,29.87,NNW,333,8.6,11.4,62,0.00,,CLR,0.00,VWS V14.01,2013-02-18 07:55:00,
2013-02-18 03:00:00,13.6,2.7,29.88,NW,324,5.7,7.1,61,0.00,,CLR,0.00,VWS V14.01,2013-02-18 08:00:00,
2013-02-18 03:05:00,13.6,3.0,29.88,West,267,5.7,8.6,62,0.00,,CLR,0.00,VWS V14.01,2013-02-18 08:05:00,
2013-02-18 03:10:00,13.6,2.7,29.88,WNW,290,0.0,5.7,61,0.00,,CLR,0.00,VWS V14.01,2013-02-18 08:10:00,
2013-02-18 03:15:00,13.6,2.7,29.88,West,279,1.4,12.9,61,0.00,,CLR,0.00,VWS V14.01,2013-02-18 08:15:00,
2013-02-18 03:20:00,13.6,2.7,29.89,West,279,7.1,12.9,61,0.00,,CLR,0.00,VWS V14.01,2013-02-18 08:20:00,
2013-02-18 03:25:00,13.4,2.5,29.89,NW,321,8.6,17.2,61,0.00,,CLR,0.00,VWS V14.01,2013-02-18 08:25:00,
2013-02-18 03:30:00,13.4,2.5,29.89,West,279,5.7,14.3,61,0.00,,CLR,0.00,VWS V14.01,2013-02-18 08:30:00,
2013-02-18 03:35:00,13.4,2.5,29.89,NW,308,0.0,11.4,61,0.00,,CLR,0.00,VWS V14.01,2013-02-18 08:35:00,
2013-02-18 03:40:00,13.4,2.5,29.89,WNW,282,0.0,12.9,61,0.00,,CLR,0.00,VWS V14.01,2013-02-18 08:40:00,
2013-02-18 03:45:00,13.4,2.5,29.89,WNW,284,11.4,14.3,61,0.00,,CLR,0.00,VWS V14.01,2013-02-18 08:45:00,
2013-02-18 03:50:00,13.4,2.5,29.90,SW,223,2.9,5.7,61,0.00,,CLR,0.00,VWS V14.01,2013-02-18 08:50:00,
2013-02-18 03:55:00,13.4,2.5,29.90,NNW,330,1.4,1.4,61,0.00,,CLR,0.00,VWS V14.01,2013-02-18 08:55:00,
2013-02-18 04:00:00,13.4,2.1,29.90,SSW,194,4.3,24.3,60,0.00,,CLR,0.00,VWS V14.01,2013-02-18 09:00:00,
2013-02-18 04:05:00,13.6,2.3,29.91,West,266,4.3,10.0,60,0.00,,CLR,0.00,VWS V14.01,2013-02-18 09:05:00,
2013-02-18 04:10:00,13.6,2.3,29.91,West,279,8.6,10.0,60,0.00,,CLR,0.00,VWS V14.01,2013-02-18 09:10:00,
2013-02-18 04:15:00,13.6,2.3,29.91,WSW,243,1.4,17.2,60,0.00,,CLR,0.00,VWS V14.01,2013-02-18 09:15:00,
2013-02-18 04:20:00,13.6,2.3,29.91,SW,223,4.3,12.9,60,0.00,,CLR,0.00,VWS V14.01,2013-02-18 09:20:00,
2013-02-18 04:25:00,13.6,2.7,29.92,NNW,339,14.3,14.3,61,0.00,,CLR,0.00,VWS V14.01,2013-02-18 09:25:00,
2013-02-18 04:30:00,13.6,2.3,29.92,WNW,300,7.1,24.3,60,0.00,,CLR,0.00,VWS V14.01,2013-02-18 09:30:00,
2013-02-18 04:35:00,13.7,2.0,29.93,SE,125,4.3,5.7,59,0.00,,CLR,0.00,VWS V14.01,2013-02-18 09:35:00,
2013-02-18 04:40:00,13.7,2.0,29.92,West,262,2.9,17.2,59,0.00,,CLR,0.00,VWS V14.01,2013-02-18 09:40:00,
2013-02-18 04:45:00,13.7,2.0,29.93,WSW,241,8.6,21.4,59,0.00,,CLR,0.00,VWS V14.01,2013-02-18 09:45:00,
2013-02-18 04:50:00,13.9,1.9,29.93,North,10,10.0,10.0,58,0.00,,CLR,0.00,VWS V14.01,2013-02-18 09:50:00,
2013-02-18 04:55:00,13.9,1.9,29.94,WNW,289,8.6,20.0,58,0.00,,CLR,0.00,VWS V14.01,2013-02-18 09:55:00,
2013-02-18 05:00:00,14.0,2.0,29.94,NW,316,15.7,18.6,58,0.00,,CLR,0.00,VWS V14.01,2013-02-18 10:00:00,
2013-02-18 05:05:00,14.1,2.0,29.95,WNW,295,5.7,10.0,58,0.00,,CLR,0.00,VWS V14.01,2013-02-18 10:05:00,
2013-02-18 05:10:00,14.0,1.6,29.94,NW,310,7.1,15.7,57,0.00,,CLR,0.00,VWS V14.01,2013-02-18 10:10:00,
2013-02-18 05:15:00,14.2,1.8,29.95,NNW,333,2.9,12.9,57,0.00,,CLR,0.00,VWS V14.01,2013-02-18 10:15:00,
2013-02-18 05:20:00,14.1,1.3,29.95,NW,326,8.6,17.2,56,0.00,,CLR,0.00,VWS V14.01,2013-02-18 10:20:00,
2013-02-18 05:25:00,14.0,1.6,29.95,North,352,0.0,5.7,57,0.00,,CLR,0.00,VWS V14.01,2013-02-18 10:25:00,
2013-02-18 05:30:00,14.1,1.7,29.95,NW,313,15.7,15.7,57,0.00,,CLR,0.00,VWS V14.01,2013-02-18 10:30:00,
2013-02-18 05:35:00,14.0,1.6,29.96,WNW,297,4.3,12.9,57,0.00,,CLR,0.00,VWS V14.01,2013-02-18 10:35:00,
2013-02-18 05:40:00,14.1,1.7,29.96,North,357,0.0,5.7,57,0.00,,CLR,0.00,VWS V14.01,2013-02-18 10:40:00,
2013-02-18 05:45:00,14.0,1.6,29.96,North,8,7.1,35.8,57,0.00,,CLR,0.00,VWS V14.01,2013-02-18 10:45:00,
2013-02-18 05:50:00,14.1,1.7,29.97,NNW,332,17.2,25.7,57,0.00,,CLR,0.00,VWS V14.01,2013-02-18 10:50:00,
2013-02-18 05:55:00,14.0,1.6,29.97,East,89,0.0,4.3,57,0.00,,CLR,0.00,VWS V14.01,2013-02-18 10:55:00,
2013-02-18 06:00:00,14.0,1.6,29.98,WNW,301,12.9,12.9,57,0.00,,CLR,0.00,VWS V14.01,2013-02-18 11:00:00,
2013-02-18 06:05:00,14.1,1.7,29.98,NNW,340,0.0,10.0,57,0.00,,CLR,0.00,VWS V14.01,2013-02-18 11:05:00,
2013-02-18 06:10:00,14.0,1.6,29.99,North,7,7.1,14.3,57,0.00,,CLR,0.00,VWS V14.01,2013-02-18 11:10:00,
2013-02-18 06:15:00,13.9,1.9,29.99,WNW,299,7.1,10.0,58,0.00,,CLR,0.00,VWS V14.01,2013-02-18 11:15:00,
2013-02-18 06:20:00,13.9,1.9,29.99,NW,318,1.4,14.3,58,0.00,,CLR,0.00,VWS V14.01,2013-02-18 11:20:00,
2013-02-18 06:25:00,13.9,1.5,29.99,NNW,328,5.7,14.3,57,0.00,,CLR,0.00,VWS V14.01,2013-02-18 11:25:00,
2013-02-18 06:30:00,14.1,2.0,29.99,South,191,0.0,5.7,58,0.00,,CLR,0.00,VWS V14.01,2013-02-18 11:30:00,
2013-02-18 06:35:00,14.0,2.0,30.00,NNW,341,5.7,15.7,58,0.00,,CLR,0.00,VWS V14.01,2013-02-18 11:35:00,
2013-02-18 06:40:00,14.2,2.2,30.00,NNE,14,1.4,15.7,58,0.00,,CLR,0.00,VWS V14.01,2013-02-18 11:40:00,
2013-02-18 06:45:00,14.2,2.2,30.01,North,359,4.3,12.9,58,0.00,,CLR,0.00,VWS V14.01,2013-02-18 11:45:00,
2013-02-18 06:50:00,14.2,2.2,30.01,NNW,329,0.0,7.1,58,0.00,,CLR,0.00,VWS V14.01,2013-02-18 11:50:00,
2013-02-18 06:55:00,14.0,2.0,30.01,West,276,0.0,5.7,58,0.00,,CLR,0.00,VWS V14.01,2013-02-18 11:55:00,
2013-02-18 07:00:00,13.9,2.2,30.01,NNW,339,1.4,10.0,59,0.00,,CLR,0.00,VWS V14.01,2013-02-18 12:00:00,
2013-02-18 07:05:00,13.9,2.2,30.02,WNW,292,2.9,12.9,59,0.00,,CLR,0.00,VWS V14.01,2013-02-18 12:05:00,
2013-02-18 07:10:00,13.9,2.2,30.02,NNW,346,8.6,8.6,59,0.00,,CLR,0.00,VWS V14.01,2013-02-18 12:10:00,
2013-02-18 07:15:00,13.9,2.6,30.03,NW,318,10.0,11.4,60,0.00,,CLR,0.00,VWS V14.01,2013-02-18 12:15:00,
2013-02-18 07:20:00,13.9,2.6,30.03,NW,322,1.4,17.2,60,0.00,,CLR,0.00,VWS V14.01,2013-02-18 12:20:00,
2013-02-18 07:25:00,13.9,2.6,30.03,West,271,0.0,12.9,60,0.00,,CLR,0.00,VWS V14.01,2013-02-18 12:25:00,
2013-02-18 07:30:00,14.0,2.7,30.04,WNW,302,1.4,12.9,60,0.00,,CLR,0.00,VWS V14.01,2013-02-18 12:30:00,
2013-02-18 07:35:00,14.2,2.5,30.04,NNE,33,1.4,31.5,59,0.00,,CLR,0.00,VWS V14.01,2013-02-18 12:35:00,
2013-02-18 07:40:00,14.3,2.2,30.04,NNW,348,11.4,20.0,58,0.00,,CLR,0.00,VWS V14.01,2013-02-18 12:40:00,
2013-02-18 07:45:00,14.5,2.8,30.05,North,353,5.7,12.9,59,0.00,,CLR,0.00,VWS V14.01,2013-02-18 12:45:00,
2013-02-18 07:50:00,14.7,2.6,30.06,West,259,10.0,27.2,58,0.00,,CLR,0.00,VWS V14.01,2013-02-18 12:50:00,
2013-02-18 07:55:00,14.9,2.8,30.06,NW,305,20.0,21.4,58,0.00,,CLR,0.00,VWS V14.01,2013-02-18 12:55:00,
2013-02-18 08:00:00,14.8,2.7,30.06,NW,313,1.4,28.6,58,0.00,,CLR,0.00,VWS V14.01,2013-02-18 13:00:00,
2013-02-18 08:05:00,15.0,3.3,30.06,North,7,0.0,12.9,59,0.00,,CLR,0.00,VWS V14.01,2013-02-18 13:05:00,
2013-02-18 08:10:00,15.1,3.4,30.06,NNE,29,8.6,22.9,59,0.00,,CLR,0.00,VWS V14.01,2013-02-18 13:10:00,
2013-02-18 08:15:00,15.4,3.3,30.06,South,178,0.0,5.7,58,0.00,,CLR,0.00,VWS V14.01,2013-02-18 13:15:00,
2013-02-18 08:20:00,15.7,3.9,30.07,SW,222,0.0,2.9,59,0.00,,CLR,0.00,VWS V14.01,2013-02-18 13:20:00,
2013-02-18 08:25:00,16.0,3.5,30.07,NNE,27,12.9,14.3,57,0.00,,CLR,0.00,VWS V14.01,2013-02-18 13:25:00,
2013-02-18 08:30:00,16.1,3.6,30.07,NW,317,0.0,24.3,57,0.00,,CLR,0.00,VWS V14.01,2013-02-18 13:30:00,
2013-02-18 08:35:00,16.3,3.8,30.07,North,349,5.7,14.3,57,0.00,,CLR,0.00,VWS V14.01,2013-02-18 13:35:00,
2013-02-18 08:40:00,16.6,4.0,30.07,NW,306,12.9,14.3,57,0.00,,CLR,0.00,VWS V14.01,2013-02-18 13:40:00,
2013-02-18 08:45:00,16.6,3.3,30.06,NW,315,1.4,34.3,55,0.00,,CLR,0.00,VWS V14.01,2013-02-18 13:45:00,
2013-02-18 08:50:00,16.9,3.5,30.07,NNW,348,0.0,10.0,55,0.00,,CLR,0.00,VWS V14.01,2013-02-18 13:50:00,
2013-02-18 08:55:00,17.3,3.9,30.07,North,350,2.9,8.6,55,0.00,,CLR,0.00,VWS V14.01,2013-02-18 13:55:00,
2013-02-18 09:00:00,17.6,4.2,30.07,West,267,2.9,2.9,55,0.00,,CLR,0.00,VWS V14.01,2013-02-18 14:00:00,
2013-02-18 09:05:00,17.7,3.5,30.07,NNW,343,10.0,10.0,53,0.00,,CLR,0.00,VWS V14.01,2013-02-18 14:05:00,
2013-02-18 09:10:00,18.0,3.3,30.08,NW,310,1.4,10.0,52,0.00,,CLR,0.00,VWS V14.01,2013-02-18 14:10:00,
2013-02-18 09:15:00,18.3,4.1,30.08,NNW,342,4.3,10.0,53,0.00,,CLR,0.00,VWS V14.01,2013-02-18 14:15:00,
2013-02-18 09:20:00,18.6,3.1,30.07,NNW,331,10.0,12.9,50,0.00,,CLR,0.00,VWS V14.01,2013-02-18 14:20:00,
2013-02-18 09:25:00,18.8,2.8,30.07,NNW,328,4.3,15.7,49,0.00,,CLR,0.00,VWS V14.01,2013-02-18 14:25:00,
2013-02-18 09:30:00,19.2,3.2,30.07,NW,325,8.6,20.0,49,0.00,,CLR,0.00,VWS V14.01,2013-02-18 14:30:00,
2013-02-18 09:35:00,19.3,2.8,30.08,North,6,4.3,10.0,48,0.00,,CLR,0.00,VWS V14.01,2013-02-18 14:35:00,
2013-02-18 09:40:00,19.6,3.1,30.08,North,9,0.0,8.6,48,0.00,,CLR,0.00,VWS V14.01,2013-02-18 14:40:00,
2013-02-18 09:45:00,19.9,3.4,30.08,NNW,327,1.4,8.6,48,0.00,,CLR,0.00,VWS V14.01,2013-02-18 14:45:00,
2013-02-18 09:50:00,20.1,2.7,30.09,North,353,1.4,12.9,46,0.00,,CLR,0.00,VWS V14.01,2013-02-18 14:50:00,
2013-02-18 09:55:00,20.0,2.6,30.10,NNW,339,10.0,14.3,46,0.00,,CLR,0.00,VWS V14.01,2013-02-18 14:55:00,
2013-02-18 10:00:00,20.2,3.2,30.10,WSW,248,0.0,15.7,47,0.00,,CLR,0.00,VWS V14.01,2013-02-18 15:00:00,
2013-02-18 10:05:00,20.6,2.6,30.10,NNE,25,4.3,22.9,45,0.00,,CLR,0.00,VWS V14.01,2013-02-18 15:05:00,
2013-02-18 10:10:00,20.6,2.6,30.10,NW,308,1.4,8.6,45,0.00,,CLR,0.00,VWS V14.01,2013-02-18 15:10:00,
2013-02-18 10:15:00,21.1,2.6,30.10,NNE,29,8.6,8.6,44,0.00,,CLR,0.00,VWS V14.01,2013-02-18 15:15:00,
2013-02-18 10:20:00,21.2,2.7,30.10,WNW,292,17.2,17.2,44,0.00,,CLR,0.00,VWS V14.01,2013-02-18 15:20:00,
2013-02-18 10:25:00,21.5,3.0,30.10,NW,318,5.7,20.0,44,0.00,,CLR,0.00,VWS V14.01,2013-02-18 15:25:00,
2013-02-18 10:30:00,21.7,2.7,30.10,NW,325,4.3,10.0,43,0.00,,CLR,0.00,VWS V14.01,2013-02-18 15:30:00,
2013-02-18 10:35:00,22.1,3.0,30.11,NNE,22,5.7,8.6,43,0.00,,CLR,0.00,VWS V14.01,2013-02-18 15:35:00,
2013-02-18 10:40:00,22.4,3.3,30.11,North,8,5.7,7.1,43,0.00,,CLR,0.00,VWS V14.01,2013-02-18 15:40:00,
2013-02-18 10:45:00,22.8,3.7,30.12,South,169,0.0,11.4,43,0.00,,CLR,0.00,VWS V14.01,2013-02-18 15:45:00,
2013-02-18 10:50:00,23.0,3.3,30.11,North,355,7.1,17.2,42,0.00,,CLR,0.00,VWS V14.01,2013-02-18 15:50:00,
2013-02-18 10:55:00,22.9,3.2,30.12,West,279,0.0,2.9,42,0.00,,CLR,0.00,VWS V14.01,2013-02-18 15:55:00,
2013-02-18 11:00:00,23.3,3.1,30.12,NW,314,10.0,12.9,41,0.00,,CLR,0.00,VWS V14.01,2013-02-18 16:00:00,
2013-02-18 11:05:00,23.5,3.3,30.11,North,353,4.3,11.4,41,0.00,,CLR,0.00,VWS V14.01,2013-02-18 16:05:00,
2013-02-18 11:10:00,23.1,2.4,30.11,WNW,293,5.7,20.0,40,0.00,,CLR,0.00,VWS V14.01,2013-02-18 16:10:00,
2013-02-18 11:15:00,23.3,3.1,30.12,NNW,348,1.4,12.9,41,0.00,,CLR,0.00,VWS V14.01,2013-02-18 16:15:00,
2013-02-18 11:20:00,23.6,3.9,30.11,SSW,202,2.9,2.9,42,0.00,,CLR,0.00,VWS V14.01,2013-02-18 16:20:00,
2013-02-18 11:25:00,24.1,3.8,30.11,SW,227,8.6,21.4,41,0.00,,CLR,0.00,VWS V14.01,2013-02-18 16:25:00,
2013-02-18 11:30:00,24.3,4.0,30.11,WNW,282,2.9,18.6,41,0.00,,CLR,0.00,VWS V14.01,2013-02-18 16:30:00,
2013-02-18 11:35:00,24.2,2.3,30.11,SSE,161,7.1,12.9,38,0.00,,CLR,0.00,VWS V14.01,2013-02-18 16:35:00,
2013-02-18 11:40:00,24.0,3.7,30.11,SW,223,7.1,10.0,41,0.00,,CLR,0.00,VWS V14.01,2013-02-18 16:40:00,
2013-02-18 11:45:00,24.3,2.9,30.11,West,267,8.6,17.2,39,0.00,,CLR,0.00,VWS V14.01,2013-02-18 16:45:00,
2013-02-18 11:50:00,24.6,2.6,30.12,ESE,123,1.4,11.4,38,0.00,,CLR,0.00,VWS V14.01,2013-02-18 16:50:00,
2013-02-18 11:55:00,24.7,3.3,30.11,SSW,209,7.1,21.4,39,0.00,,CLR,0.00,VWS V14.01,2013-02-18 16:55:00,
2013-02-18 12:00:00,24.9,3.5,30.11,West,278,10.0,12.9,39,0.00,,CLR,0.00,VWS V14.01,2013-02-18 17:00:00,
2013-02-18 12:05:00,25.3,4.4,30.11,SE,141,4.3,15.7,40,0.00,,CLR,0.00,VWS V14.01,2013-02-18 17:05:00,
2013-02-18 12:10:00,25.8,4.8,30.11,SW,236,7.1,14.3,40,0.00,,CLR,0.00,VWS V14.01,2013-02-18 17:10:00,
2013-02-18 12:15:00,25.6,5.2,30.11,SSE,153,1.4,8.6,41,0.00,,CLR,0.00,VWS V14.01,2013-02-18 17:15:00,
2013-02-18 12:20:00,25.6,4.1,30.11,WSW,243,0.0,17.2,39,0.00,,CLR,0.00,VWS V14.01,2013-02-18 17:20:00,
2013-02-18 12:25:00,25.8,4.8,30.11,SW,228,0.0,17.2,40,0.00,,CLR,0.00,VWS V14.01,2013-02-18 17:25:00,
2013-02-18 12:30:00,25.8,5.4,30.11,SW,222,5.7,15.7,41,0.00,,CLR,0.00,VWS V14.01,2013-02-18 17:30:00,
2013-02-18 12:35:00,26.1,5.1,30.11,SE,132,1.4,12.9,40,0.00,,CLR,0.00,VWS V14.01,2013-02-18 17:35:00,
2013-02-18 12:40:00,25.9,3.8,30.11,WSW,254,11.4,24.3,38,0.00,,CLR,0.00,VWS V14.01,2013-02-18 17:40:00,
2013-02-18 12:45:00,25.6,4.1,30.10,WSW,254,12.9,30.0,39,0.00,,CLR,0.00,VWS V14.01,2013-02-18 17:45:00,
2013-02-18 12:50:00,25.5,4.0,30.11,NNW,338,5.7,15.7,39,0.00,,CLR,0.00,VWS V14.01,2013-02-18 17:50:00,
2013-02-18 12:55:00,26.2,5.7,30.11,West,273,2.9,10.0,41,0.00,,CLR,0.00,VWS V14.01,2013-02-18 17:55:00,
2013-02-18 13:00:00,26.2,3.5,30.10,WSW,240,5.7,10.0,37,0.00,,CLR,0.00,VWS V14.01,2013-02-18 18:00:00,
2013-02-18 13:05:00,26.2,3.5,30.10,NW,322,5.7,8.6,37,0.00,,CLR,0.00,VWS V14.01,2013-02-18 18:05:00,
2013-02-18 13:10:00,27.0,4.8,30.10,NW,318,2.9,21.4,38,0.00,,CLR,0.00,VWS V14.01,2013-02-18 18:10:00,
2013-02-18 13:15:00,27.0,5.3,30.10,West,280,1.4,12.9,39,0.00,,CLR,0.00,VWS V14.01,2013-02-18 18:15:00,
2013-02-18 13:20:00,27.3,6.2,30.10,SW,219,1.4,8.6,40,0.00,,CLR,0.00,VWS V14.01,2013-02-18 18:20:00,
2013-02-18 13:25:00,27.4,6.8,30.11,WNW,282,7.1,17.2,41,0.00,,CLR,0.00,VWS V14.01,2013-02-18 18:25:00,
2013-02-18 13:30:00,27.5,6.9,30.10,West,259,0.0,4.3,41,0.00,,CLR,0.00,VWS V14.01,2013-02-18 18:30:00,
2013-02-18 13:35:00,28.1,6.3,30.10,SSW,202,0.0,12.9,39,0.00,,CLR,0.00,VWS V14.01,2013-02-18 18:35:00,
2013-02-18 13:40:00,28.0,6.3,30.11,WNW,294,14.3,17.2,39,0.00,,CLR,0.00,VWS V14.01,2013-02-18 18:40:00,
2013-02-18 13:45:00,27.8,4.9,30.10,WNW,302,15.7,15.7,37,0.00,,CLR,0.00,VWS V14.01,2013-02-18 18:45:00,
2013-02-18 13:50:00,27.7,5.4,30.10,West,262,7.1,17.2,38,0.00,,CLR,0.00,VWS V14.01,2013-02-18 18:50:00,
2013-02-18 13:55:00,28.0,6.3,30.10,WNW,299,0.0,2.9,39,0.00,,CLR,0.00,VWS V14.01,2013-02-18 18:55:00,
2013-02-18 14:00:00,28.9,8.2,30.10,SE,132,2.9,7.1,41,0.00,,CLR,0.00,VWS V14.01,2013-02-18 19:00:00,
2013-02-18 14:05:00,29.1,6.7,30.10,SE,134,1.4,8.6,38,0.00,,CLR,0.00,VWS V14.01,2013-02-18 19:05:00,
2013-02-18 14:10:00,29.3,6.3,30.09,West,259,7.1,11.4,37,0.00,,CLR,0.00,VWS V14.01,2013-02-18 19:10:00,
2013-02-18 14:15:00,29.3,7.4,30.09,South,189,1.4,4.3,39,0.00,,CLR,0.00,VWS V14.01,2013-02-18 19:15:00,
2013-02-18 14:20:00,29.7,7.8,30.10,West,275,4.3,10.0,39,0.00,,CLR,0.00,VWS V14.01,2013-02-18 19:20:00,
2013-02-18 14:25:00,29.8,7.3,30.10,SW,215,11.4,20.0,38,0.00,,CLR,0.00,VWS V14.01,2013-02-18 19:25:00,
2013-02-18 14:30:00,29.7,6.6,30.10,SW,222,1.4,15.7,37,0.00,,CLR,0.00,VWS V14.01,2013-02-18 19:30:00,
2013-02-18 14:35:00,29.7,6.6,30.10,WSW,249,2.9,10.0,37,0.00,,CLR,0.00,VWS V14.01,2013-02-18 19:35:00,
2013-02-18 14:40:00,29.9,7.4,30.10,South,183,1.4,11.4,38,0.00,,CLR,0.00,VWS V14.01,2013-02-18 19:40:00,
2013-02-18 14:45:00,29.6,5.9,30.10,SSW,201,0.0,7.1,36,0.00,,CLR,0.00,VWS V14.01,2013-02-18 19:45:00,
2013-02-18 14:50:00,29.7,5.4,30.10,WNW,284,2.9,12.9,35,0.00,,CLR,0.00,VWS V14.01,2013-02-18 19:50:00,
2013-02-18 14:55:00,29.7,6.0,30.10,SW,226,0.0,8.6,36,0.00,,CLR,0.00,VWS V14.01,2013-02-18 19:55:00,
2013-02-18 15:00:00,29.9,6.2,30.10,WSW,239,7.1,14.3,36,0.00,,CLR,0.00,VWS V14.01,2013-02-18 20:00:00,
2013-02-18 15:05:00,29.7,6.0,30.10,West,263,0.0,21.4,36,0.00,,CLR,0.00,VWS V14.01,2013-02-18 20:05:00,
2013-02-18 15:10:00,29.7,6.6,30.10,West,264,2.9,11.4,37,0.00,,CLR,0.00,VWS V14.01,2013-02-18 20:10:00,
2013-02-18 15:15:00,29.9,5.6,30.10,West,266,1.4,7.1,35,0.00,,CLR,0.00,VWS V14.01,2013-02-18 20:15:00,
2013-02-18 15:20:00,30.2,5.9,30.10,WSW,247,4.3,12.9,35,0.00,,CLR,0.00,VWS V14.01,2013-02-18 20:20:00,
2013-02-18 15:25:00,30.3,6.6,30.10,WSW,250,5.7,10.0,36,0.00,,CLR,0.00,VWS V14.01,2013-02-18 20:25:00,
2013-02-18 15:30:00,30.6,7.4,30.10,SSW,198,1.4,4.3,37,0.00,,CLR,0.00,VWS V14.01,2013-02-18 20:30:00,
2013-02-18 15:35:00,30.9,7.7,30.10,WSW,240,0.0,8.6,37,0.00,,CLR,0.00,VWS V14.01,2013-02-18 20:35:00,
2013-02-18 15:40:00,30.9,6.5,30.10,WSW,241,0.0,4.3,35,0.00,,CLR,0.00,VWS V14.01,2013-02-18 20:40:00,
2013-02-18 15:45:00,30.8,7.6,30.10,SW,226,5.7,11.4,37,0.00,,CLR,0.00,VWS V14.01,2013-02-18 20:45:00,
2013-02-18 15:50:00,30.9,7.7,30.10,West,270,0.0,5.7,37,0.00,,CLR,0.00,VWS V14.01,2013-02-18 20:50:00,
2013-02-18 15:55:00,30.9,7.1,30.10,WSW,244,5.7,8.6,36,0.00,,CLR,0.00,VWS V14.01,2013-02-18 20:55:00,
2013-02-18 16:00:00,31.1,7.9,30.10,SSE,167,0.0,4.3,37,0.00,,CLR,0.00,VWS V14.01,2013-02-18 21:00:00,
2013-02-18 16:05:00,31.1,6.0,30.11,WNW,288,0.0,1.4,34,0.00,,CLR,0.00,VWS V14.01,2013-02-18 21:05:00,
2013-02-18 16:10:00,31.1,7.9,30.11,West,277,0.0,7.1,37,0.00,,CLR,0.00,VWS V14.01,2013-02-18 21:10:00,
2013-02-18 16:15:00,30.9,6.5,30.10,WNW,288,0.0,15.7,35,0.00,,CLR,0.00,VWS V14.01,2013-02-18 21:15:00,
2013-02-18 16:20:00,30.9,7.1,30.11,SSW,205,15.7,18.6,36,0.00,,CLR,0.00,VWS V14.01,2013-02-18 21:20:00,
2013-02-18 16:26:00,31.0,7.8,30.11,SW,221,0.0,0.0,37,0.00,,CLR,0.00,VWS V14.01,2013-02-18 21:26:00,
2013-02-18 16:31:00,30.8,7.0,30.11,SW,223,4.3,11.4,36,0.00,,CLR,0.00,VWS V14.01,2013-02-18 21:31:00,
2013-02-18 16:36:00,30.6,6.8,30.11,SSW,198,0.0,4.3,36,0.00,,CLR,0.00,VWS V14.01,2013-02-18 21:36:00,
2013-02-18 16:41:00,30.5,6.7,30.11,South,171,7.1,7.1,36,0.00,,CLR,0.00,VWS V14.01,2013-02-18 21:41:00,
2013-02-18 16:46:00,30.3,7.2,30.12,South,181,1.4,5.7,37,0.00,,CLR,0.00,VWS V14.01,2013-02-18 21:46:00,
2013-02-18 16:51:00,30.2,7.1,30.12,SW,235,4.3,17.2,37,0.00,,CLR,0.00,VWS V14.01,2013-02-18 21:51:00,
2013-02-18 16:56:00,30.2,7.1,30.12,WSW,256,0.0,4.3,37,0.00,,CLR,0.00,VWS V14.01,2013-02-18 21:56:00,
2013-02-18 17:01:00,30.1,7.0,30.12,SSW,211,0.0,5.7,37,0.00,,CLR,0.00,VWS V14.01,2013-02-18 22:01:00,
2013-02-18 17:06:00,29.9,6.8,30.12,SSW,211,0.0,5.7,37,0.00,,CLR,0.00,VWS V14.01,2013-02-18 22:06:00,
2013-02-18 17:11:00,29.9,6.2,30.12,NW,307,0.0,4.3,36,0.00,,CLR,0.00,VWS V14.01,2013-02-18 22:11:00,
2013-02-18 17:16:00,29.7,6.6,30.12,West,281,1.4,1.4,37,0.00,,CLR,0.00,VWS V14.01,2013-02-18 22:16:00,
2013-02-18 17:21:00,29.4,6.4,30.12,NW,317,5.7,10.0,37,0.00,,CLR,0.00,VWS V14.01,2013-02-18 22:21:00,
2013-02-18 17:26:00,29.5,6.4,30.13,NW,326,0.0,8.6,37,0.00,,CLR,0.00,VWS V14.01,2013-02-18 22:26:00,
2013-02-18 17:31:00,29.3,6.9,30.13,NNW,327,0.0,0.0,38,0.00,,CLR,0.00,VWS V14.01,2013-02-18 22:31:00,
2013-02-18 17:36:00,29.1,5.5,30.13,WNW,282,0.0,7.1,36,0.00,,CLR,0.00,VWS V14.01,2013-02-18 22:36:00,
2013-02-18 17:41:00,29.2,6.8,30.14,West,277,0.0,0.0,38,0.00,,CLR,0.00,VWS V14.01,2013-02-18 22:41:00,
2013-02-18 17:46:00,29.0,6.0,30.14,WNW,298,0.0,0.0,37,0.00,,CLR,0.00,VWS V14.01,2013-02-18 22:46:00,
2013-02-18 17:51:00,28.9,6.5,30.14,WSW,252,0.0,0.0,38,0.00,,CLR,0.00,VWS V14.01,2013-02-18 22:51:00,
2013-02-18 17:56:00,28.7,6.3,30.14,WSW,252,0.0,0.0,38,0.00,,CLR,0.00,VWS V14.01,2013-02-18 22:56:00,
2013-02-18 18:01:00,28.4,6.6,30.14,WSW,252,0.0,0.0,39,0.00,,CLR,0.00,VWS V14.01,2013-02-18 23:01:00,
2013-02-18 18:06:00,28.3,7.6,30.14,WSW,252,0.0,0.0,41,0.00,,CLR,0.00,VWS V14.01,2013-02-18 23:06:00,
2013-02-18 18:11:00,28.2,6.4,30.15,WSW,237,0.0,0.0,39,0.00,,CLR,0.00,VWS V14.01,2013-02-18 23:11:00,
2013-02-18 18:16:00,28.0,6.3,30.15,WSW,237,0.0,0.0,39,0.00,,CLR,0.00,VWS V14.01,2013-02-18 23:16:00,
2013-02-18 18:21:00,27.8,6.6,30.15,WSW,237,0.0,0.0,40,0.00,,CLR,0.00,VWS V14.01,2013-02-18 23:21:00,
2013-02-18 18:26:00,27.8,7.2,30.15,WSW,237,0.0,0.0,41,0.00,,CLR,0.00,VWS V14.01,2013-02-18 23:26:00,
2013-02-18 18:31:00,27.7,7.6,30.15,WSW,237,0.0,0.0,42,0.00,,CLR,0.00,VWS V14.01,2013-02-18 23:31:00,
2013-02-18 18:36:00,27.5,6.9,30.15,WSW,237,0.0,0.0,41,0.00,,CLR,0.00,VWS V14.01,2013-02-18 23:36:00,
2013-02-18 18:41:00,27.4,6.8,30.15,WSW,237,0.0,0.0,41,0.00,,CLR,0.00,VWS V14.01,2013-02-18 23:41:00,
2013-02-18 18:46:00,27.1,8.1,30.15,WSW,237,0.0,0.0,44,0.00,,CLR,0.00,VWS V14.01,2013-02-18 23:46:00,
2013-02-18 18:51:00,26.8,7.3,30.16,WSW,237,0.0,0.0,43,0.00,,CLR,0.00,VWS V14.01,2013-02-18 23:51:00,
2013-02-18 18:56:00,26.7,7.7,30.15,WSW,237,0.0,0.0,44,0.00,,CLR,0.00,VWS V14.01,2013-02-18 23:56:00,
2013-02-18 19:01:00,26.8,7.3,30.15,WSW,237,0.0,0.0,43,0.00,,CLR,0.00,VWS V14.01,2013-02-19 00:01:00,
2013-02-18 19:06:00,26.8,7.8,30.16,WSW,237,0.0,0.0,44,0.00,,CLR,0.00,VWS V14.01,2013-02-19 00:06:00,
2013-02-18 19:11:00,26.8,7.8,30.16,WSW,237,0.0,0.0,44,0.00,,CLR,0.00,VWS V14.01,2013-02-19 00:11:00,
2013-02-18 19:16:00,27.0,8.0,30.16,WSW,237,0.0,0.0,44,0.00,,CLR,0.00,VWS V14.01,2013-02-19 00:16:00,
2013-02-18 19:21:00,27.0,8.0,30.16,WSW,238,0.0,2.9,44,0.00,,CLR,0.00,VWS V14.01,2013-02-19 00:21:00,
2013-02-18 19:26:00,27.1,8.1,30.17,WSW,238,0.0,0.0,44,0.00,,CLR,0.00,VWS V14.01,2013-02-19 00:26:00,
2013-02-18 19:31:00,27.1,8.6,30.16,WSW,245,0.0,1.4,45,0.00,,CLR,0.00,VWS V14.01,2013-02-19 00:31:00,
2013-02-18 19:36:00,27.0,8.5,30.17,WSW,245,0.0,1.4,45,0.00,,CLR,0.00,VWS V14.01,2013-02-19 00:36:00,
2013-02-18 19:41:00,26.8,8.3,30.16,SW,236,0.0,2.9,45,0.00,,CLR,0.00,VWS V14.01,2013-02-19 00:41:00,
2013-02-18 19:46:00,26.7,9.2,30.16,SW,236,0.0,2.9,47,0.00,,CLR,0.00,VWS V14.01,2013-02-19 00:46:00,
2013-02-18 19:51:00,26.5,9.0,30.16,SW,230,0.0,0.0,47,0.00,,CLR,0.00,VWS V14.01,2013-02-19 00:51:00,
2013-02-18 19:56:00,26.2,9.7,30.16,SW,230,0.0,0.0,49,0.00,,CLR,0.00,VWS V14.01,2013-02-19 00:56:00,
2013-02-18 20:01:00,26.2,9.7,30.16,SW,231,0.0,0.0,49,0.00,,CLR,0.00,VWS V14.01,2013-02-19 01:01:00,
2013-02-18 20:06:00,26.2,9.7,30.16,SW,231,0.0,0.0,49,0.00,,CLR,0.00,VWS V14.01,2013-02-19 01:06:00,
2013-02-18 20:11:00,26.1,9.6,30.16,SW,231,0.0,0.0,49,0.00,,CLR,0.00,VWS V14.01,2013-02-19 01:11:00,
2013-02-18 20:16:00,25.9,9.8,30.16,SW,231,0.0,0.0,50,0.00,,CLR,0.00,VWS V14.01,2013-02-19 01:16:00,
2013-02-18 20:21:00,25.8,9.7,30.16,SW,231,0.0,0.0,50,0.00,,CLR,0.00,VWS V14.01,2013-02-19 01:21:00,
2013-02-18 20:26:00,25.8,9.7,30.17,SW,231,0.0,0.0,50,0.00,,CLR,0.00,VWS V14.01,2013-02-19 01:26:00,
2013-02-18 20:31:00,25.8,9.3,30.17,SW,231,0.0,0.0,49,0.00,,CLR,0.00,VWS V14.01,2013-02-19 01:31:00,
2013-02-18 20:36:00,25.8,9.3,30.17,SW,231,0.0,0.0,49,0.00,,CLR,0.00,VWS V14.01,2013-02-19 01:36:00,
2013-02-18 20:41:00,25.9,9.4,30.17,SW,231,0.0,2.9,49,0.00,,CLR,0.00,VWS V14.01,2013-02-19 01:41:00,
2013-02-18 20:46:00,26.1,9.6,30.16,SW,231,0.0,0.0,49,0.00,,CLR,0.00,VWS V14.01,2013-02-19 01:46:00,
2013-02-18 20:51:00,25.9,9.4,30.17,SW,231,0.0,0.0,49,0.00,,CLR,0.00,VWS V14.01,2013-02-19 01:51:00,
2013-02-18 20:56:00,26.1,9.6,30.16,SW,231,0.0,0.0,49,0.00,,CLR,0.00,VWS V14.01,2013-02-19 01:56:00,
2013-02-18 21:01:00,26.1,9.6,30.16,SW,231,0.0,0.0,49,0.00,,CLR,0.00,VWS V14.01,2013-02-19 02:01:00,
2013-02-18 21:06:00,26.1,9.6,30.17,SW,231,0.0,0.0,49,0.00,,CLR,0.00,VWS V14.01,2013-02-19 02:06:00,
2013-02-18 21:11:00,25.9,9.4,30.17,SW,231,0.0,0.0,49,0.00,,CLR,0.00,VWS V14.01,2013-02-19 02:11:00,
2013-02-18 21:16:00,25.9,9.4,30.18,SW,231,0.0,0.0,49,0.00,,CLR,0.00,VWS V14.01,2013-02-19 02:16:00,
2013-02-18 21:21:00,26.1,9.6,30.18,SW,231,0.0,0.0,49,0.00,,CLR,0.00,VWS V14.01,2013-02-19 02:21:00,
2013-02-18 21:26:00,26.2,9.7,30.18,SW,231,0.0,0.0,49,0.00,,CLR,0.00,VWS V14.01,2013-02-19 02:26:00,
2013-02-18 21:31:00,26.2,9.7,30.18,SW,231,0.0,0.0,49,0.00,,CLR,0.00,VWS V14.01,2013-02-19 02:31:00,
2013-02-18 21:36:00,26.1,9.6,30.18,SW,231,0.0,0.0,49,0.00,,CLR,0.00,VWS V14.01,2013-02-19 02:36:00,
2013-02-18 21:41:00,26.1,9.6,30.18,West,277,0.0,0.0,49,0.00,,CLR,0.00,VWS V14.01,2013-02-19 02:41:00,
2013-02-18 21:46:00,25.8,9.7,30.18,West,277,0.0,0.0,50,0.00,,CLR,0.00,VWS V14.01,2013-02-19 02:46:00,
2013-02-18 21:51:00,25.5,9.5,30.18,West,277,0.0,0.0,50,0.00,,CLR,0.00,VWS V14.01,2013-02-19 02:51:00,
2013-02-18 21:56:00,25.3,9.3,30.18,West,277,0.0,0.0,50,0.00,,CLR,0.00,VWS V14.01,2013-02-19 02:56:00,
2013-02-18 22:01:00,25.2,9.2,30.18,West,277,0.0,0.0,50,0.00,,CLR,0.00,VWS V14.01,2013-02-19 03:01:00,
2013-02-18 22:06:00,25.2,9.2,30.18,West,277,0.0,0.0,50,0.00,,CLR,0.00,VWS V14.01,2013-02-19 03:06:00,
2013-02-18 22:12:00,25.4,9.4,30.18,West,277,0.0,0.0,50,0.00,,CLR,0.00,VWS V14.01,2013-02-19 03:12:00,
2013-02-18 22:17:00,25.3,9.3,30.18,West,277,0.0,0.0,50,0.00,,CLR,0.00,VWS V14.01,2013-02-19 03:17:00,
2013-02-18 22:22:00,25.4,9.4,30.18,West,277,0.0,0.0,50,0.00,,CLR,0.00,VWS V14.01,2013-02-19 03:22:00,
2013-02-18 22:27:00,25.3,9.3,30.17,West,277,0.0,0.0,50,0.00,,CLR,0.00,VWS V14.01,2013-02-19 03:27:00,
2013-02-18 22:32:00,25.2,9.2,30.17,West,277,0.0,0.0,50,0.00,,CLR,0.00,VWS V14.01,2013-02-19 03:32:00,
2013-02-18 22:37:00,25.0,9.0,30.17,West,277,0.0,0.0,50,0.00,,CLR,0.00,VWS V14.01,2013-02-19 03:37:00,
2013-02-18 22:42:00,24.7,9.2,30.18,West,277,0.0,0.0,51,0.00,,CLR,0.00,VWS V14.01,2013-02-19 03:42:00,
2013-02-18 22:47:00,24.5,9.0,30.18,West,277,0.0,0.0,51,0.00,,CLR,0.00,VWS V14.01,2013-02-19 03:47:00,
2013-02-18 22:52:00,24.3,8.4,30.18,West,277,0.0,0.0,50,0.00,,CLR,0.00,VWS V14.01,2013-02-19 03:52:00,
2013-02-18 22:57:00,24.5,9.0,30.18,SW,226,0.0,0.0,51,0.00,,CLR,0.00,VWS V14.01,2013-02-19 03:57:00,
2013-02-18 23:02:00,24.8,9.2,30.18,SW,226,0.0,0.0,51,0.00,,CLR,0.00,VWS V14.01,2013-02-19 04:02:00,
2013-02-18 23:07:00,24.9,9.4,30.18,SW,226,0.0,0.0,51,0.00,,CLR,0.00,VWS V14.01,2013-02-19 04:07:00,
2013-02-18 23:12:00,25.0,9.4,30.18,SW,226,0.0,0.0,51,0.00,,CLR,0.00,VWS V14.01,2013-02-19 04:12:00,
2013-02-18 23:17:00,25.1,9.5,30.18,SW,218,0.0,0.0,51,0.00,,CLR,0.00,VWS V14.01,2013-02-19 04:17:00,
2013-02-18 23:22:00,25.0,9.4,30.18,SW,218,0.0,0.0,51,0.00,,CLR,0.00,VWS V14.01,2013-02-19 04:22:00,
2013-02-18 23:27:00,25.3,10.1,30.18,SW,218,0.0,0.0,52,0.00,,CLR,0.00,VWS V14.01,2013-02-19 04:27:00,
2013-02-18 23:32:00,25.6,10.0,30.18,WSW,249,2.9,4.3,51,0.00,,CLR,0.00,VWS V14.01,2013-02-19 04:32:00,
2013-02-18 23:37:00,26.2,10.6,30.19,SSW,202,2.9,4.3,51,0.00,,CLR,0.00,VWS V14.01,2013-02-19 04:37:00,
2013-02-18 23:42:00,26.4,10.3,30.18,SSW,203,0.0,1.4,50,0.00,,CLR,0.00,VWS V14.01,2013-02-19 04:42:00,
2013-02-18 23:47:00,26.5,9.9,30.19,SSW,202,0.0,0.0,49,0.00,,CLR,0.00,VWS V14.01,2013-02-19 04:47:00,
2013-02-18 23:52:00,26.4,10.3,30.19,SSW,202,0.0,0.0,50,0.00,,CLR,0.00,VWS V14.01,2013-02-19 04:52:00,
2013-02-18 23:57:00,26.5,9.9,30.20,WSW,241,0.0,4.3,49,0.00,,CLR,0.00,VWS V14.01,2013-02-19 04:57:00,